{"data":{"norad_id":68414,"intl_designator":"2026-066C","name":"XINZHENGCHENG 01","alt_names":[],"object_type":"PAYLOAD","status":"ACTIVE","operator":null,"country":"PRC","launch_date":"2026-03-30","launch_site_code":"JSC","launch_vehicle":null,"mission":null,"orbit_class":"UNKNOWN","rcs_meters":null,"size_class":null,"mass_kg":null,"dimensions":null,"purposes":[],"wikipedia_slug":null,"has_3d_model":false,"image_url":null,"decayed_at":null,"tle_current":{"epoch":"2026-09-20T01:29:28.673952Z","epoch_age_seconds":106811,"freshness":"FRESH","line1":"1 68414U 26066C   26263.06213743  .00000610  00000+0  61735-4 0  9990","line2":"2 68414  84.9707 167.3664 0023907 284.4806  75.3765 14.88779156 25844","mean_motion":14.88779156,"eccentricity":0.0023907,"inclination_deg":84.9707,"raan_deg":167.3664,"arg_perigee_deg":284.4806,"mean_anomaly_deg":75.3765,"bstar":6.1735e-5,"rev_number":2584,"period_min":96.723546551319,"perigee_km":585.06205832756,"apogee_km":618.43568463346,"semimajor_km":6979.8858714805,"source":"CELESTRAK","updated_at":"2026-09-20T09:00:24.196753Z"}}}